RH
21 19 19 25 35 34 29 25 22 22 62 74 72 74 87 94 76 77 99 92 89 99 88 73 57 54 60 61 50 34 26 21 25 19 21 31 33 52 57 62 68 70 72 67 54 44 48 52 52
19 18 26 32 31 32 22 22 25 45 60 64 56 71 92 91 84 95 94 98 99 98 92 76 68 65 63 58 49 36 25 27 20 21 31 33 40 45 51 60 67 70 69 68 45 39 47 47 50
21 33 36 35 35 28 24 20 61 62 62 51 49 72 87 94 87 96 94 97 97 99 96 84 88 70 65 59 43 40 26 27 28 30 48 39 48 52 41 48 64 72 72 59 39 31 33 37 41
27 33 22 24 25 21 19 17 36 53 55 55 53 88 90 98 89 99 100 98 96 98 94 87 80 64 66 56 44 33 44 24 35 36 49 64 64 50 36 45 50 60 72 53 38 34 30 31 40
23 28 27 19 18 14 25 65 68 67 64 69 65 92 94 99 100 100 100 99 99 100 98 83 67 64 69 55 42 48 22 27 32 53 58 67 58 37 32 34 41 42 41 46 41 37 35 33 34
35 25 26 24 18 16 58 62 66 66 66 62 84 84 95 100 98 100 100 100 100 100 100 96 87 80 71 51 48 28 43 30 58 66 65 58 40 33 34 35 33 38 45 47 48 41 38 37 37
34 34 29 23 24 36 58 57 65 66 60 69 74 91 97 98 100 100 98 94 96 97 94 97 99 97 64 47 41 43 25 52 49 55 45 35 33 33 36 36 38 42 48 46 47 50 46 40 39
37 32 26 23 32 54 55 55 54 53 66 65 71 94 94 98 100 99 100 98 98 97 100 100 95 87 85 67 64 41 37 42 51 35 33 34 34 38 40 39 41 42 46 49 48 48 45 40 38
23 32 32 22 42 42 55 54 56 75 91 86 88 92 92 100 100 99 100 100 98 88 93 94 84 82 74 60 46 43 53 46 33 35 37 36 37 38 40 43 46 49 50 51 50 44 41 39 37
28 37 28 22 23 43 51 51 54 74 91 91 96 97 100 100 100 98 99 100 100 100 89 78 80 86 71 58 62 42 28 32 36 36 37 39 40 40 42 47 49 52 54 56 48 42 38 35 35
23 27 22 19 31 47 47 49 52 76 82 83 96 97 97 96 98 99 97 98 100 99 100 100 91 83 70 60 50 24 29 39 40 44 54 54 44 43 47 59 60 54 51 46 40 36 35 35 36
23 21 20 20 40 48 47 53 56 62 71 78 87 89 88 90 94 94 95 99 100 98 86 86 74 67 64 86 60 38 42 43 49 62 67 63 61 62 58 59 52 46 41 40 39 38 37 38 39
22 18 17 18 50 46 45 53 60 97 86 78 81 85 86 88 91 93 94 98 93 91 81 79 77 84 90 72 53 38 46 49 53 61 66 66 68 67 54 50 47 44 43 42 40 38 39 41 43
20 20 25 36 44 43 47 52 64 93 91 85 84 86 88 76 83 91 93 93 100 100 85 74 73 88 91 69 51 43 51 60 67 72 69 71 65 61 55 50 47 45 42 41 41 43 44 45 46
26 22 29 40 42 44 40 48 78 87 88 87 92 91 86 76 82 88 90 91 95 96 92 77 69 91 88 69 53 52 62 74 74 72 73 71 64 57 52 50 47 44 43 42 44 47 49 49 48
22 20 35 31 36 38 41 57 78 86 90 83 85 87 80 82 82 81 78 74 79 83 80 75 83 87 83 69 51 65 76 78 75 78 76 68 59 56 54 51 43 40 42 46 48 49 48 47 48
27 23 30 34 34 38 35 58 66 79 88 92 91 91 82 86 82 82 76 69 68 69 70 74 77 81 75 67 59 69 81 80 79 78 76 69 66 60 52 43 40 45 47 48 49 49 45 43 46
30 26 29 32 28 36 39 57 66 75 76 86 93 95 89 87 83 77 78 75 76 76 70 69 76 74 73 73 76 74 83 84 80 79 78 79 68 55 46 43 46 50 49 49 46 42 44 46 48
28 25 24 24 22 33 42 60 66 76 72 78 84 92 94 90 77 76 76 73 81 84 79 75 77 75 79 80 86 90 86 86 83 82 76 67 57 50 47 48 50 50 46 43 44 44 46 47 49
28 26 28 26 20 23 43 55 61 68 68 67 72 83 85 86 83 80 79 80 83 80 77 73 75 76 79 76 77 82 76 70 64 62 56 55 54 51 50 49 46 42 35 32 33 36 46 55 55
27 26 27 29 24 32 42 52 60 52 52 60 64 66 71 78 84 80 83 83 82 81 78 73 71 73 76 73 72 68 66 59 57 54 51 56 54 50 48 41 30 26 23 22 24 31 42 52 54
25 26 26 30 27 36 29 38 44 57 60 55 58 66 65 66 71 74 80 80 82 82 79 77 71 73 73 68 65 60 56 58 53 50 49 50 51 46 37 30 24 22 21 25 33 43 46 57 59
25 27 30 29 35 36 35 39 36 51 57 54 51 53 60 59 64 70 76 74 77 76 79 77 74 75 73 69 64 59 51 51 51 53 52 50 42 35 30 26 25 20 19 22 39 51 56 55 53
24 24 35 44 45 53 36 40 43 52 45 44 46 48 48 59 64 63 68 71 77 74 74 79 78 76 77 71 67 58 52 52 53 56 52 41 37 32 30 28 22 18 33 44 52 54 51 52 48
32 36 47 45 61 57 46 47 41 29 36 41 45 45 44 46 65 67 78 76 77 74 73 77 80 82 81 75 73 66 55 52 50 55 52 38 35 33 31 28 25 37 44 46 56 54 57 56 51
34 38 57 45 63 43 49 48 32 29 30 32 35 37 42 50 57 60 64 72 74 78 79 82 85 85 81 82 80 72 62 55 56 55 52 43 34 31 30 24 24 44 37 26 46 60 61 61 60
32 36 35 68 77 71 52 43 27 25 33 42 42 42 45 65 66 63 60 69 75 79 80 78 84 84 81 83 86 78 72 64 60 60 54 39 32 30 29 28 41 28 27 33 42 51 64 69 64
29 37 42 57 50 55 50 44 36 27 31 42 47 48 51 63 74 73 74 73 75 77 79 83 82 78 72 82 86 79 79 76 68 64 52 34 31 34 31 35 28 32 40 39 43 47 54 57 49
36 37 45 47 61 58 66 47 37 29 29 28 33 46 49 60 82 84 81 75 74 76 76 75 80 83 81 80 82 84 81 78 76 66 42 31 32 30 30 28 32 39 40 43 48 50 50 50 48
30 35 42 63 44 78 78 54 28 30 29 27 29 33 45 52 77 86 87 83 81 79 86 81 81 79 78 76 79 80 77 76 65 47 36 33 33 30 33 32 37 39 42 42 48 51 53 50 49
Wind_Speed
2 3 2 5 4 5 4 6 3 5 0 3 3 3 5 5 2 2 4 11 26 32 33 31 32 33 33 32 31 31 31 28 29 30 29 30 33 32 33 33 31 30 28 27 28 27 29 26 26
5 4 4 2 4 2 5 4 4 4 3 1 4 3 5 5 3 4 3 17 27 29 30 30 31 32 32 31 29 28 29 29 30 29 29 31 32 32 34 33 31 30 28 27 28 29 26 24 23
6 2 3 4 3 4 4 4 2 1 2 2 3 6 4 3 3 3 13 22 24 26 28 28 27 30 31 30 29 27 29 30 28 28 27 31 31 30 33 31 29 28 26 26 27 27 25 23 21
3 4 4 4 6 5 5 5 2 2 4 6 1 7 4 7 2 7 19 24 23 21 25 25 27 29 29 29 27 27 30 30 27 26 27 26 27 27 30 29 27 26 24 23 25 25 24 25 23
4 3 3 1 4 4 4 3 3 3 2 4 1 3 4 4 15 18 20 22 18 22 22 23 25 27 28 27 27 27 28 28 26 26 27 26 27 28 27 26 24 24 24 23 22 21 21 22 22
4 3 4 3 4 3 3 1 1 2 3 2 5 3 4 14 19 19 19 20 22 21 22 19 17 23 24 27 26 26 25 25 24 25 26 27 27 25 24 22 20 20 20 19 18 18 19 18 18
5 3 3 4 4 4 4 2 5 4 5 4 2 4 3 10 19 17 21 25 24 21 20 23 22 22 20 22 24 24 23 23 23 24 24 25 24 22 21 19 16 17 17 17 17 15 15 15 15
4 4 2 4 1 4 2 1 2 2 4 3 2 5 6 8 25 25 25 25 25 25 27 30 28 34 17 18 18 20 20 21 23 23 24 23 21 20 18 17 14 15 13 14 13 14 14 14 13
3 4 2 4 1 3 1 1 2 4 7 4 3 2 13 20 26 29 27 26 30 33 35 43 42 29 22 19 16 18 20 22 22 22 22 22 19 17 15 14 13 12 11 11 11 12 14 13 13
4 3 6 5 2 2 2 1 3 4 4 5 8 11 17 18 19 20 18 17 22 28 39 44 36 30 31 23 13 16 16 17 20 22 21 19 16 15 13 11 9 9 9 9 12 13 12 11 11
3 4 4 6 6 2 3 2 2 8 3 4 14 11 11 14 13 13 21 17 19 25 26 31 42 29 27 27 11 12 16 18 20 19 17 17 15 13 12 11 10 12 13 14 13 12 9 8 9
3 8 5 7 4 4 3 6 4 4 1 12 13 14 12 10 14 13 20 19 22 26 38 38 38 33 22 15 15 16 19 20 20 19 16 14 14 13 12 14 15 14 14 12 10 9 9 9 9
3 5 4 5 7 3 4 6 5 3 11 13 12 12 11 12 18 19 20 23 23 21 27 34 30 23 18 14 15 17 19 19 17 17 16 15 14 14 15 15 14 13 10 8 7 8 8 8 8
6 4 5 4 5 5 6 4 4 2 11 14 13 13 10 8 14 11 20 21 23 21 27 29 24 19 16 15 15 18 19 18 19 17 15 15 16 14 15 14 12 10 7 8 8 8 7 6 5
4 3 5 2 4 3 7 5 4 13 9 11 8 7 6 3 9 12 18 19 24 23 24 29 25 17 18 17 18 21 20 17 18 18 16 15 13 15 15 14 12 9 8 7 6 6 5 5 5
5 2 3 2 4 4 2 2 5 13 13 11 8 8 8 5 9 14 19 23 24 24 26 26 23 19 19 18 20 19 19 17 19 19 17 15 15 15 14 12 11 10 8 7 6 6 4 4 5
6 1 1 1 6 3 4 4 7 10 11 10 11 10 8 5 9 17 24 25 25 26 26 23 20 18 18 18 20 20 20 18 19 17 17 17 17 16 14 13 12 11 9 6 4 3 2 5 4
3 1 1 2 4 2 3 4 8 14 12 11 9 11 12 10 14 19 24 27 26 26 25 23 22 20 21 20 18 21 20 19 18 18 18 18 18 17 15 13 12 10 6 3 3 4 6 4 3
1 2 1 2 3 5 5 5 10 9 6 7 8 8 10 13 15 18 24 26 24 25 25 25 24 24 24 25 23 23 22 21 19 17 17 18 19 17 15 13 9 7 5 6 5 5 4 4 4
5 2 2 2 3 1 4 4 2 7 10 10 13 11 13 10 7 14 20 26 29 30 28 27 27 28 28 31 31 26 25 21 18 18 18 18 19 17 14 10 8 7 5 4 3 3 5 4 3
3 1 2 3 2 4 6 5 2 4 2 6 7 8 9 13 12 11 17 24 29 32 34 34 31 31 32 34 31 25 23 20 21 21 20 20 17 15 12 9 7 4 3 3 3 4 5 4 2
1 3 0 4 3 2 1 3 5 6 8 7 10 10 13 11 10 12 20 23 27 30 33 34 34 33 35 34 33 31 32 27 25 27 23 20 16 14 11 8 6 4 3 5 7 6 5 4 3
4 5 2 3 3 4 1 4 6 2 9 14 14 16 15 15 14 15 21 28 31 35 36 37 36 35 38 38 36 33 32 32 26 26 24 20 17 14 11 8 6 5 5 7 5 7 7 4 1
4 3 5 4 3 2 3 4 5 5 15 17 11 12 15 13 11 13 19 22 25 35 37 37 37 38 39 38 37 36 34 33 27 28 25 23 21 17 13 9 7 6 4 4 3 5 3 1 1
6 5 3 3 3 4 1 1 8 8 9 8 10 14 16 16 12 11 14 21 24 34 38 37 37 35 38 39 40 37 38 35 32 35 32 27 24 21 16 10 6 2 2 2 3 1 2 4 6
4 7 5 3 2 3 2 4 5 5 3 8 9 9 9 11 13 16 18 25 27 29 32 33 34 34 39 40 41 38 35 36 36 36 35 34 29 23 18 14 11 6 6 3 8 8 9 9 10
4 3 4 7 3 3 3 7 9 4 5 4 4 5 8 8 9 13 15 24 25 26 34 40 35 36 40 43 43 41 37 38 39 36 36 33 27 22 19 16 7 8 6 7 10 12 12 10 10
4 7 4 3 3 3 3 4 5 8 6 5 6 7 7 5 8 8 9 19 25 30 32 33 36 41 46 43 41 41 39 37 38 37 37 31 27 24 19 12 9 9 9 9 8 10 12 11 9
2 2 5 5 4 4 1 5 7 7 5 5 6 7 7 6 7 7 8 18 24 25 30 36 38 35 37 36 36 36 35 34 34 35 36 33 27 24 20 14 14 12 11 10 10 12 13 12 10
3 6 6 5 4 1 3 6 5 8 7 6 8 7 4 6 7 6 6 11 17 25 21 29 29 32 35 35 33 32 29 28 30 35 34 30 29 24 17 16 15 12 11 9 12 14 16 14 13
Wind_Direction
66 112 105 46 56 64 267 261 249 268 47 25 10 88 103 42 104 219 118 157 160 155 159 159 154 150 146 141 137 134 134 134 135 130 128 126 121 119 113 108 106 101 97 92 91 94 97 99 96
119 120 65 92 87 77 264 267 281 297 352 300 109 102 54 68 56 80 68 149 150 156 161 161 155 150 145 140 138 135 132 137 132 130 129 127 124 118 111 107 103 100 98 95 92 95 99 98 98
127 83 86 95 123 197 219 228 273 300 336 352 91 53 60 16 54 76 130 145 153 159 165 159 153 149 146 143 138 138 134 133 134 131 131 128 124 119 114 109 104 101 100 99 99 95 97 99 98
165 21 38 103 224 253 226 316 314 297 350 32 98 71 84 4 341 121 141 152 148 165 168 159 157 154 148 142 139 138 141 134 133 130 131 129 125 121 116 111 108 105 104 101 99 98 92 91 98
61 48 67 253 258 262 239 307 307 94 81 353 30 83 66 59 95 103 114 150 153 158 163 167 163 157 148 141 138 142 131 136 132 133 135 134 132 127 119 112 110 108 105 102 98 97 93 87 93
41 90 55 296 251 253 261 203 142 83 113 146 72 96 64 118 101 110 120 117 139 142 149 152 151 146 147 136 140 128 142 129 133 135 138 141 136 127 119 114 110 112 109 102 99 100 93 92 89
113 80 202 243 281 308 243 140 145 161 135 54 104 72 90 102 120 119 118 109 112 120 121 138 121 114 121 132 130 139 132 138 136 141 142 137 135 128 121 115 115 111 108 105 98 105 102 98 90
109 94 251 264 276 282 314 303 143 111 76 100 18 154 152 126 116 122 120 109 109 116 124 135 136 119 117 123 127 129 140 140 140 135 137 135 133 129 126 120 120 114 116 105 105 103 103 95 88
129 62 281 262 178 261 358 225 31 53 87 60 32 26 122 129 118 114 105 106 107 106 119 119 123 128 122 119 127 148 152 140 134 135 138 138 140 138 130 129 128 123 112 108 110 110 104 99 95
86 112 228 219 232 238 192 210 127 79 98 70 91 98 121 125 124 122 118 122 128 130 125 126 130 135 130 123 142 152 138 133 139 144 146 149 145 139 141 132 134 132 122 119 121 114 110 100 90
140 219 218 258 229 197 176 147 94 142 95 188 148 136 132 122 129 114 129 134 139 150 148 145 142 150 147 147 176 152 149 152 156 154 150 148 146 149 147 144 137 125 124 123 120 115 103 92 84
188 254 220 278 160 156 167 149 73 33 104 144 147 145 130 134 131 134 134 150 150 154 150 150 154 162 169 182 178 167 161 162 163 160 161 161 159 157 145 139 133 127 123 123 114 102 99 97 84
219 257 245 273 134 89 96 44 113 67 117 131 141 135 143 167 149 160 149 159 164 172 161 163 170 184 188 184 175 170 169 170 170 178 180 182 174 158 145 138 137 130 128 119 110 112 111 98 84
213 256 281 109 155 145 116 142 70 117 126 143 155 162 193 150 160 149 164 171 182 188 183 180 182 190 191 191 185 173 176 179 186 192 188 174 168 164 162 151 142 136 137 126 124 122 101 81 67
253 276 112 52 179 147 125 23 72 147 139 151 162 173 194 256 157 172 172 171 184 195 198 193 193 195 194 192 189 181 188 198 199 195 179 175 174 169 166 158 150 147 147 140 131 122 102 87 82
351 36 37 174 172 87 54 158 138 158 154 165 181 190 204 207 182 192 185 189 189 189 193 191 196 198 197 195 188 190 196 191 186 185 184 181 175 175 170 168 159 157 166 152 145 132 104 67 95
2 173 17 107 218 113 221 127 166 169 175 175 188 201 215 205 207 199 195 199 198 198 198 198 203 204 197 198 197 199 195 193 190 191 188 183 184 181 176 170 162 164 164 151 151 121 84 108 115
290 21 117 210 216 96 218 110 167 174 191 188 187 198 211 214 220 205 202 203 205 208 207 204 204 203 196 198 203 197 199 196 196 194 191 189 184 180 181 175 168 165 165 167 157 126 114 88 124
330 285 261 284 246 126 221 161 196 178 181 188 211 205 211 219 221 205 204 206 206 210 209 204 201 197 201 196 188 184 188 193 193 192 193 187 182 182 183 174 167 174 178 151 141 128 126 116 145
211 195 277 214 345 96 143 221 162 186 205 206 197 205 213 220 194 192 201 204 207 205 207 207 210 210 207 201 193 189 191 194 193 183 181 185 184 182 180 180 170 150 142 130 123 129 134 104 128
219 95 71 249 38 53 104 348 206 228 251 191 228 219 209 209 202 205 198 204 209 208 207 207 210 211 202 196 192 192 189 186 182 183 181 182 187 187 184 172 147 135 134 110 88 90 101 125 78
25 148 129 279 110 191 164 248 258 225 229 225 213 210 218 207 204 205 194 203 210 212 213 211 210 208 201 198 197 196 190 182 194 189 185 187 189 185 179 174 162 143 96 79 59 48 69 86 122
238 76 74 11 98 95 263 79 266 168 237 240 225 216 217 214 200 198 205 205 203 212 214 213 212 210 206 204 205 205 197 199 195 187 186 186 183 184 182 176 160 125 100 58 34 94 84 57 51
103 60 44 53 51 46 299 123 280 194 218 235 227 225 219 207 204 209 207 202 204 209 212 215 213 214 212 209 210 211 208 202 188 186 187 187 185 181 179 173 162 133 70 49 120 113 57 159 202
75 66 338 344 13 216 351 63 240 255 249 243 238 221 215 206 187 188 187 191 195 203 208 212 213 212 215 215 215 217 216 206 202 194 190 188 185 181 177 168 142 9 352 122 146 284 212 212 217
182 155 155 234 194 275 313 237 256 217 277 260 255 243 204 213 195 194 201 196 200 201 205 206 209 212 219 222 222 220 222 214 210 204 198 198 197 189 179 183 199 226 170 148 223 217 221 225 229
206 119 161 106 15 47 269 297 302 319 339 320 310 265 217 207 199 200 200 198 197 198 205 210 208 212 220 226 222 219 221 220 218 212 207 199 194 188 192 188 194 175 191 206 219 227 232 233 239
216 152 83 17 161 235 267 276 240 308 314 306 314 268 270 199 202 204 199 193 197 205 208 210 212 216 224 227 227 226 225 223 220 212 205 197 189 193 183 200 187 181 202 207 220 229 231 230 235
153 132 64 116 133 175 212 260 220 237 251 280 266 245 240 232 218 203 203 202 204 207 212 217 217 213 223 228 227 227 227 222 220 211 200 196 194 193 194 193 182 192 204 208 215 227 224 224 244
166 175 142 134 211 137 164 266 246 237 259 291 291 266 261 214 219 207 206 206 204 209 211 219 219 221 226 230 227 227 227 219 210 201 200 199 199 193 197 181 184 195 206 213 268 236 226 233 248